Probability
3 3 3 4 4 1 0 0 0 0 0 0 0 0 0 0 0 0 0 0 0 0 0 1 2 2 2 3 3 3 2 2 1 2 3 4 5 5 3 2 2 2 2 2 3 3 2 1 0
1 3 4 4 2 0 0 0 0 0 0 0 0 0 0 0 0 0 0 0 0 0 0 0 1 1 1 2 2 2 1 1 0 1 1 2 3 4 2 1 1 1 1 2 2 2 1 0 0
2 4 6 3 1 0 0 0 0 0 0 0 0 0 0 0 0 0 0 0 0 0 0 0 0 0 0 1 1 1 0 0 0 0 0 1 3 3 1 0 0 0 0 1 1 1 1 0 0
5 7 6 2 0 0 0 0 0 0 0 0 0 1 1 0 0 0 0 0 0 0 0 0 0 0 0 0 0 0 0 0 0 0 1 2 3 3 2 1 0 0 0 0 0 0 0 0 0
7 7 4 1 0 0 0 0 0 0 0 0 1 2 2 1 0 0 0 0 0 0 0 0 1 0 0 0 0 0 0 0 0 1 2 3 3 3 2 1 0 0 0 0 0 0 0 0 0
7 4 1 0 0 0 0 0 0 0 0 0 1 2 3 1 0 0 0 0 0 0 0 0 0 0 0 0 0 0 0 0 1 2 3 3 3 2 1 0 0 0 0 0 0 1 0 0 1
5 2 0 0 0 0 0 0 0 0 0 0 1 2 3 2 1 0 0 0 0 0 0 0 0 1 1 1 0 0 0 0 1 3 4 3 2 1 0 0 0 0 0 0 0 1 0 0 1
3 1 0 0 0 0 0 0 0 0 0 0 0 1 3 3 2 1 1 0 0 0 0 0 0 1 2 2 1 0 0 1 2 3 4 2 1 0 0 0 0 0 0 0 1 1 1 1 1
2 1 0 0 0 0 0 0 0 0 0 0 0 1 3 3 4 4 3 1 0 0 0 0 0 1 1 2 1 1 1 2 3 3 3 2 1 1 0 0 0 0 0 1 2 1 1 1 1
1 0 0 0 0 0 0 0 0 0 0 0 1 2 3 4 5 6 4 1 0 0 0 0 0 0 0 1 1 2 2 2 3 2 2 3 3 2 1 1 1 1 1 1 2 1 0 0 0
1 0 0 0 0 0 0 0 0 0 0 0 2 3 3 4 6 6 4 1 0 0 0 0 0 0 0 0 1 1 1 1 1 1 2 3 3 3 2 2 3 3 2 1 1 0 0 0 0
1 0 0 0 0 0 0 0 0 0 0 0 1 3 3 4 5 5 2 0 0 0 0 0 0 0 0 0 0 0 0 0 0 1 3 3 3 3 2 2 3 4 2 1 1 1 0 0 0
0 0 0 0 0 0 0 0 0 0 0 0 1 2 2 3 4 3 1 0 0 0 0 0 0 0 0 0 0 0 0 0 0 1 2 3 3 2 1 1 2 2 1 2 2 2 1 1 1
0 0 0 0 0 0 0 0 0 0 0 0 0 1 1 2 3 2 1 0 0 0 0 0 0 0 0 0 0 0 0 0 0 1 1 2 2 1 0 1 1 1 2 3 4 4 3 3 3
0 0 0 0 0 0 0 0 0 0 0 0 0 0 1 2 2 1 0 0 0 0 0 0 0 0 0 0 0 0 0 0 0 0 0 2 2 1 0 1 2 2 3 4 5 6 5 4 3
0 0 0 0 0 0 0 0 0 0 0 0 0 0 1 2 2 1 0 0 0 0 0 0 0 0 1 0 0 0 0 0 0 0 0 1 1 1 0 0 1 1 3 4 5 6 6 4 2
0 0 0 0 0 0 0 0 0 0 0 0 0 0 1 2 2 1 1 1 0 0 0 1 1 1 1 0 0 0 0 0 0 0 0 0 0 0 0 0 0 1 2 3 4 5 6 4 2
0 0 0 0 0 0 0 0 0 0 0 0 0 0 2 2 2 2 2 1 0 0 1 3 3 3 2 1 1 1 1 1 0 0 0 0 0 0 0 0 0 1 2 3 3 5 5 4 3
0 0 0 0 0 0 0 0 0 0 0 0 0 0 1 3 3 4 3 2 1 1 2 4 6 6 4 3 2 2 2 2 1 1 1 1 0 0 0 1 1 1 2 2 3 3 3 3 3
0 0 0 0 0 0 0 0 0 0 0 0 0 0 2 4 5 6 6 5 3 2 2 3 5 6 6 4 3 3 3 3 3 3 3 3 1 1 1 2 2 2 2 3 4 3 2 2 3
0 0 0 0 0 0 0 0 0 0 0 0 0 0 2 5 6 7 8 8 7 4 3 4 6 7 6 5 4 3 4 4 4 4 5 5 4 3 3 3 3 3 4 5 6 5 4 3 3
0 0 0 0 0 0 0 0 0 0 0 1 1 1 2 4 7 8 9 10 8 6 5 6 8 8 7 6 5 5 6 6 5 4 5 6 6 5 4 4 4 4 5 7 8 7 7 6 5
0 0 0 0 0 0 0 0 0 1 1 2 2 3 3 5 7 8 11 12 8 4 4 7 8 9 8 8 7 8 8 7 6 6 6 6 6 6 6 6 6 6 6 7 9 9 9 9 8
0 0 0 0 0 0 0 0 1 2 3 3 4 5 6 7 8 9 11 13 9 5 3 5 7 8 9 9 9 9 8 8 8 8 8 6 6 7 8 9 9 8 8 8 9 10 10 10 10
0 0 0 0 0 0 0 1 2 3 3 2 4 6 7 7 7 8 10 12 10 7 6 6 8 10 10 9 9 9 8 7 8 8 8 7 6 8 10 11 11 10 10 9 9 9 9 10 10
0 0 0 0 0 0 0 1 2 2 1 1 3 5 6 6 7 9 11 11 10 8 7 9 12 13 12 11 11 10 9 7 8 8 9 9 10 10 11 12 13 12 11 9 8 8 10 11 11
0 0 0 0 0 0 0 2 2 1 0 1 3 5 6 6 8 10 10 10 8 7 8 12 16 16 14 14 14 12 11 10 9 10 11 14 15 15 14 13 14 13 11 9 8 8 10 12 12
0 0 0 0 0 0 0 1 2 1 1 2 4 6 7 8 9 9 8 8 7 6 8 13 15 15 13 14 15 14 13 12 11 11 13 16 19 19 16 15 15 13 12 9 8 7 9 11 11
0 0 0 0 0 0 0 0 1 1 1 3 5 7 8 9 10 9 9 9 9 9 10 12 14 12 12 14 17 17 15 13 12 13 15 18 20 19 17 17 16 15 14 12 10 10 10 11 11
0 0 0 0 0 0 0 0 0 1 2 4 6 6 8 9 9 10 11 11 12 11 11 12 13 12 12 15 19 19 17 15 14 15 18 20 21 19 17 18 18 17 16 15 15 14 12 11 12
Wind_Speed
11 9 5 5 6 3 11 9 6 7 6 7 7 6 7 9 8 7 5 5 4 5 7 8 6 6 7 7 7 7 8 8 9 10 11 11 12 13 13 14 14 14 14 14 14 13 13 13 13
8 5 5 6 1 8 10 8 9 9 7 5 6 6 7 9 8 6 5 5 4 6 7 8 7 6 7 7 7 7 8 8 9 10 10 11 11 12 12 13 13 13 13 14 13 13 13 12 12
6 6 6 2 7 9 9 8 8 8 6 4 5 7 7 7 6 5 6 5 5 7 7 9 6 7 7 7 7 7 8 9 9 10 10 11 11 12 11 11 12 12 12 12 12 12 12 12 11
5 6 5 2 11 10 8 7 6 6 6 5 5 7 7 6 4 6 7 5 6 7 8 10 7 7 8 8 8 9 9 9 10 10 10 11 11 11 11 11 11 11 11 11 12 12 12 11 11
5 5 2 8 12 10 8 7 4 5 5 5 5 9 9 7 7 8 6 5 7 7 8 9 9 9 9 9 9 10 10 10 10 10 10 11 11 11 10 10 10 10 11 11 12 12 11 10 10
5 4 3 9 11 8 8 5 5 7 7 6 6 8 8 7 7 6 6 6 6 7 7 9 10 10 9 9 10 10 10 10 10 10 10 11 10 10 10 9 9 10 11 11 11 11 10 9 8
5 2 7 9 9 8 7 5 5 6 7 6 5 7 8 8 6 6 6 6 6 7 7 7 8 9 9 10 10 10 10 10 10 9 10 10 10 9 9 9 9 9 10 10 10 10 9 8 8
5 1 6 8 8 9 6 5 5 5 7 6 3 5 8 9 7 7 7 7 7 6 6 6 6 7 7 9 11 10 10 9 9 9 9 8 9 10 9 10 9 9 9 9 9 9 8 8 7
6 1 7 8 7 7 5 5 6 5 7 6 5 7 10 11 9 8 7 7 7 6 5 6 6 6 6 7 9 9 9 9 8 9 8 5 5 7 7 9 9 9 8 8 8 8 8 8 8
3 4 9 7 5 5 5 4 5 5 6 7 9 10 12 10 8 8 8 8 7 7 6 5 5 6 6 5 6 4 5 6 5 5 5 4 4 4 5 10 9 9 8 8 8 8 8 7 5
2 5 6 5 5 4 5 4 4 4 5 6 9 12 12 10 8 7 7 7 7 7 6 6 6 5 5 4 4 3 3 4 5 5 4 4 3 3 3 4 7 7 7 5 7 7 4 3 2
2 4 3 4 4 3 3 4 4 3 6 7 10 12 12 10 8 7 7 7 7 7 6 6 6 5 4 3 3 3 3 3 3 4 2 3 2 2 3 3 4 3 3 3 3 2 3 3 3
2 3 3 3 3 3 4 4 4 6 7 9 11 11 11 9 9 8 7 7 6 6 6 5 5 5 4 3 1 3 3 3 4 3 3 2 2 2 3 3 2 2 3 4 3 3 3 3 3
3 2 3 3 4 4 4 4 4 6 8 10 11 10 9 9 9 9 8 7 7 6 5 5 4 5 4 3 2 2 3 3 2 2 3 1 2 2 1 3 2 2 2 2 2 3 3 2 2
3 3 4 4 2 3 3 4 4 8 9 10 10 9 9 9 9 8 8 7 7 6 5 5 5 5 4 3 2 2 2 2 2 2 2 1 1 2 1 2 2 2 2 3 2 3 3 3 3
5 5 3 4 2 3 5 3 7 9 10 9 9 9 9 8 8 8 8 7 7 6 6 5 4 5 5 3 1 1 1 2 2 2 2 2 1 1 1 1 2 2 2 2 2 2 2 2 1
5 1 2 4 3 3 5 2 7 9 9 9 9 9 9 9 9 8 8 8 7 7 6 6 4 5 4 4 2 2 2 1 1 1 1 2 1 1 1 0 2 2 2 2 2 2 1 1 1
1 1 1 1 3 4 5 1 6 9 9 8 8 8 9 10 10 10 9 8 8 7 6 6 6 5 5 4 3 2 1 2 1 1 1 1 1 1 1 1 1 1 1 1 1 2 1 1 2
4 4 3 1 1 4 4 3 5 9 9 9 9 9 9 10 10 10 10 9 9 8 7 7 6 6 4 3 3 3 3 2 2 2 2 1 1 1 1 1 1 1 1 1 1 1 2 2 1
6 6 3 0 1 3 4 4 4 9 10 9 9 10 10 11 11 11 11 10 10 9 8 8 7 7 6 4 3 2 2 2 2 1 2 2 2 2 2 1 1 1 1 1 1 2 2 1 2
8 6 4 3 3 5 5 4 5 8 9 9 9 9 10 11 12 12 12 11 10 9 9 7 7 7 6 5 4 3 3 3 3 3 2 2 2 2 1 1 1 1 1 1 2 2 3 2 2
7 3 5 5 6 3 5 3 4 7 9 11 11 10 10 11 11 12 12 12 11 10 9 8 7 7 6 7 5 5 4 3 3 2 2 2 2 2 2 2 1 2 1 1 2 1 2 3 2
5 2 5 6 7 6 5 6 2 6 7 9 11 11 11 11 11 12 12 12 11 10 9 9 8 8 7 7 6 6 5 4 3 3 3 2 2 2 2 2 2 2 1 1 2 1 2 2 2
4 5 6 8 8 7 4 7 2 3 4 5 8 10 11 11 11 11 11 11 10 10 9 9 9 8 8 8 7 7 5 4 3 3 3 3 2 2 2 2 2 2 1 1 2 2 2 2 2
9 8 6 7 7 4 2 6 2 1 2 3 5 8 10 10 11 12 12 12 11 11 10 9 9 9 9 9 8 7 7 6 6 5 4 3 2 2 2 2 2 2 1 2 2 2 2 2 2
10 11 8 7 6 3 5 5 1 1 1 2 4 6 9 10 10 11 12 11 11 11 11 10 10 9 9 8 7 7 7 6 4 4 3 3 2 2 1 2 2 2 2 2 2 3 3 2 3
10 10 9 10 8 7 4 3 3 3 3 3 5 6 8 9 9 9 10 11 11 10 10 10 10 9 9 8 8 7 7 6 4 4 4 3 2 2 3 3 3 3 2 2 3 2 3 3 3
8 7 7 9 7 8 6 6 3 2 4 5 5 6 7 8 8 9 8 9 9 10 9 10 10 9 8 8 8 7 7 7 6 5 4 3 3 3 3 3 3 3 3 3 3 3 3 3 2
8 9 8 8 8 9 6 2 2 1 3 4 5 5 7 8 8 8 8 8 8 9 9 9 9 9 8 8 7 7 7 7 7 6 5 5 4 4 4 3 3 3 3 3 3 3 3 3 3
10 10 10 9 7 8 8 2 3 1 2 2 3 4 5 6 7 7 8 7 7 7 8 9 9 9 8 8 7 7 7 7 7 6 6 5 4 4 4 3 4 4 4 4 4 4 3 4 4
Wind_Direction
176 185 211 237 230 93 62 58 59 66 62 55 52 51 52 38 27 63 69 59 66 77 90 99 85 90 98 102 102 100 100 104 108 110 113 117 119 121 121 122 124 124 124 125 126 126 128 130 130
174 189 229 242 288 76 67 58 61 61 76 79 69 64 66 63 54 76 83 80 88 82 85 85 85 88 96 99 101 103 106 107 109 112 115 119 119 120 121 124 125 126 126 127 127 128 129 129 129
183 227 262 264 52 59 66 64 74 85 83 65 67 54 51 61 67 74 84 97 91 81 85 88 90 93 98 99 98 100 105 109 111 114 118 121 121 121 122 122 126 128 129 131 129 129 129 129 127
213 226 235 71 70 64 70 78 89 100 89 73 84 83 72 53 61 88 101 103 90 84 83 88 82 94 101 100 98 100 102 107 112 115 121 124 124 124 124 123 124 129 130 132 131 130 129 130 129
240 255 141 82 74 71 71 72 70 67 75 87 88 91 84 76 89 101 107 96 88 83 82 89 84 92 97 95 97 101 105 107 111 116 119 123 123 125 125 124 126 130 131 130 129 129 132 135 138
246 247 72 77 79 80 77 77 78 76 88 95 100 97 87 108 109 107 101 90 88 90 92 97 95 91 91 91 96 99 102 104 108 113 117 119 123 125 125 126 129 131 132 131 131 132 135 139 138
294 12 72 81 87 84 76 71 66 81 92 88 98 97 109 117 111 113 104 96 90 90 95 97 108 110 106 93 92 95 95 98 103 110 115 117 121 124 126 127 129 131 132 133 134 135 139 138 137
299 284 87 80 79 78 85 82 69 74 86 97 100 101 119 127 133 125 113 102 91 89 94 99 101 99 109 108 97 97 98 100 108 113 115 124 134 132 133 136 131 133 135 135 139 143 142 138 141
267 262 70 64 64 82 101 99 87 96 109 102 83 84 111 132 140 133 122 113 106 98 95 97 98 102 102 98 103 110 112 107 122 118 122 140 127 126 134 116 130 133 134 136 141 146 148 152 149
276 51 60 51 59 85 104 98 112 137 122 116 113 110 125 140 146 141 129 122 116 109 105 100 98 99 99 95 103 102 102 103 95 91 107 108 101 100 105 124 135 137 139 144 148 157 169 187 156
10 52 63 69 73 95 116 115 126 143 115 126 136 138 143 145 147 140 127 123 117 117 112 111 102 93 90 97 93 85 87 95 99 93 94 96 107 113 109 123 141 147 155 149 150 170 165 146 128
80 70 61 76 86 103 110 116 116 94 74 115 135 143 148 152 148 142 133 128 123 121 118 109 108 102 88 78 87 99 94 92 91 97 92 102 93 89 91 107 117 136 134 129 134 135 134 134 142
114 76 79 90 112 108 120 115 103 99 109 127 135 146 152 152 148 141 138 138 136 133 129 117 110 108 106 99 88 92 92 88 97 96 91 79 110 106 107 108 124 129 124 141 141 129 128 142 153
77 107 114 113 115 134 134 121 131 117 134 140 147 152 156 156 153 148 153 151 147 144 141 132 138 131 128 127 109 98 104 106 95 101 97 91 92 94 118 130 131 129 127 105 127 134 138 139 122
169 163 148 133 149 144 175 151 133 134 149 154 155 155 157 160 161 162 160 161 155 151 150 150 154 143 143 141 132 125 121 112 102 99 105 123 114 107 140 117 146 127 132 143 149 144 146 153 155
209 210 146 127 172 164 231 107 126 151 164 164 164 164 168 171 173 169 165 166 159 156 155 162 156 146 149 144 142 120 99 104 115 119 123 126 112 142 188 144 136 148 158 147 146 170 156 148 161
208 219 83 131 173 191 235 105 137 164 175 172 174 175 178 178 181 174 171 169 166 164 165 166 161 159 156 152 160 158 140 130 129 129 128 124 140 144 208 121 97 178 153 149 182 138 167 163 186
282 300 3 62 157 209 229 197 157 178 188 183 181 182 184 185 183 177 178 172 172 172 175 175 172 168 172 170 172 177 167 170 163 146 120 146 149 139 231 144 139 206 151 144 131 146 159 203 210
290 291 309 25 125 234 240 236 181 187 198 192 189 188 188 189 180 178 180 180 179 179 181 184 186 173 182 182 192 181 176 183 175 166 147 174 166 145 211 137 147 225 129 188 191 187 177 204 205
251 265 276 88 127 264 274 255 195 194 203 201 196 194 195 187 179 180 184 185 185 184 186 187 190 185 190 178 192 192 187 190 170 165 155 187 180 191 176 182 213 190 174 196 203 204 234 193 195
247 265 286 294 254 224 257 219 188 189 200 202 205 202 197 192 185 182 187 188 189 190 193 192 192 191 195 187 189 180 181 201 180 182 179 187 187 190 201 202 246 247 246 181 226 220 227 219 202
248 262 272 259 257 245 257 270 172 182 195 203 205 203 200 194 191 186 187 189 190 191 189 192 189 193 193 197 202 200 197 195 193 198 176 181 188 199 200 212 233 258 255 212 240 199 245 243 224
272 266 256 256 261 263 241 267 170 177 200 204 206 205 201 195 192 189 191 190 191 190 189 187 186 191 194 200 199 210 208 202 196 192 172 203 193 208 216 216 229 246 255 251 268 256 264 243 256
204 219 226 236 246 248 254 264 243 180 219 208 199 199 198 193 190 189 188 187 190 189 190 188 185 191 195 201 204 211 211 214 212 212 198 207 193 200 200 212 229 242 258 241 248 249 235 257 275
215 233 230 226 226 234 217 255 275 346 256 228 198 188 186 187 188 185 185 186 190 191 192 189 187 193 197 201 205 208 211 212 216 224 210 230 216 201 183 221 232 247 243 241 241 233 254 242 244
223 240 253 260 254 228 202 245 246 324 257 212 196 178 177 181 186 186 186 188 191 194 195 193 190 194 196 199 201 206 210 215 211 214 229 218 236 229 190 224 232 238 238 241 233 235 226 226 235
224 236 261 266 265 264 233 231 226 211 189 178 170 165 171 176 180 183 184 188 190 195 197 196 192 194 196 198 198 202 208 218 216 206 220 222 222 220 209 226 231 235 233 244 244 237 230 225 232
253 241 238 249 255 254 237 238 250 213 191 175 168 169 170 172 174 176 180 186 189 191 192 196 194 195 197 198 202 197 200 204 208 217 220 228 226 230 223 226 231 230 226 223 231 223 215 218 221
208 217 237 250 259 266 256 234 61 204 194 174 166 170 171 173 171 172 177 182 184 187 187 190 192 195 197 199 200 202 199 199 201 206 213 216 224 222 222 225 222 219 219 217 219 233 209 218 224
226 228 229 239 242 258 273 262 94 128 178 176 156 159 167 173 172 171 172 175 180 185 188 189 193 196 198 197 197 200 202 205 206 203 205 207 210 214 213 217 215 216 213 213 211 220 217 222 228